This demonstration page uses our WeatherBlox Daily Observations layout. Learn more.

38.88101, -77.10428

Hourly Observations for March 31, 2018

Temp ( °F °C ) Dew Point ( °F °C ) Humidity (%) Winds ( mph kmh ) Pressure ( in mb ) Visibility ( mi km ) Precip ( " mm )
12:52 am 00:52 Clear 46 7.8 30 -1.1 54 54 NW 13 20 30.2 1023 10 16.0934 0 0
1:52 am 01:52 Clear 45 7.2 29 -1.7 54 54 NW 14 22 30.22 1023 10 16.0934 0 0
2:52 am 02:52 Clear 43 6.1 27 -2.8 53 53 NNW 9 15 30.25 1024 10 16.0934 0 0
3:52 am 03:52 Clear 43 6.1 26 -3.3 51 51 NW 12 19 30.27 1025 10 16.0934 0 0
4:52 am 04:52 Clear 41 5 26 -3.3 55 55 NW 8 13 30.28 1025 10 16.0934 0 0
5:52 am 05:52 Clear 41 5 26 -3.3 55 55 NNW 7 11 30.29 1026 10 16.0934 0 0
6:52 am 06:52 Mostly Clear 41 5 25 -3.9 53 53 NNW 5 7 30.32 1027 10 16.0934 0 0
7:52 am 07:52 Mostly Sunny 42 5.6 26 -3.3 53 53 NNW 8 13 30.35 1028 10 16.0934 0 0
8:52 am 08:52 Mostly Sunny 46 7.8 28 -2.2 50 50 NNW 9 15 30.36 1028 10 16.0934 0 0
9:52 am 09:52 Mostly Sunny 49 9.4 30 -1.1 48 48 VRB 6 9 30.35 1028 10 16.0934 0 0
10:52 am 10:52 Partly Cloudy 52 11.1 28 -2.2 40 40 VRB 6 9 30.36 1028 10 16.0934 0 0
11:52 am 11:52 Mostly Sunny 53 11.7 29 -1.7 40 40 SE 5 7 30.34 1027 10 16.0934 0 0
12:52 pm 12:52 Mostly Sunny 56 13.3 24 -4.4 29 29 S 9 15 30.29 1026 10 16.0934 0 0
1:52 pm 13:52 Mostly Sunny 58 14.4 25 -3.9 28 28 S 10 17 30.27 1025 10 16.0934 0 0
2:52 pm 14:52 Mostly Sunny 60 15.6 28 -2.2 30 30 S 12 19 30.25 1024 10 16.0934 0 0
3:52 pm 15:52 Mostly Sunny 60 15.6 27 -2.8 28 28 S 14 22 30.23 1024 10 16.0934 0 0
4:52 pm 16:52 Mostly Sunny 60 15.6 30 -1.1 32 32 S 12 19 30.19 1023 10 16.0934 0 0
5:52 pm 17:52 Sunny 59 15 30 -1.1 33 33 S 15 24 30.16 1022 10 16.0934 0 0
6:52 pm 18:52 Mostly Sunny 58 14.4 28 -2.2 32 32 S 15 24 30.15 1021 10 16.0934 0 0
7:52 pm 19:52 Clear 56 13.3 28 -2.2 34 34 SSE 14 22 30.13 1020 10 16.0934 0 0
8:52 pm 20:52 Partly Cloudy 54 12.2 29 -1.7 38 38 S 17 28 30.14 1021 10 16.0934 0 0
9:52 pm 21:52 Partly Cloudy 52 11.1 32 0 47 47 S 17 28 30.13 1020 10 16.0934 0 0
10:52 pm 22:52 Partly Cloudy 51 10.6 32 0 48 48 S 17 28 30.11 1020 10 16.0934 0 0
11:52 pm 23:52 Mostly Cloudy 51 10.6 31 -0.6 46 46 S 15 24 30.09 1019 10 16.0934 0 0

Powered by AerisWeather